Time,TemperatureF,DewpointF,PressureIn,WindDirection,WindDirectionDegrees,WindSpeedMPH,WindSpeedGustMPH,Humidity,HourlyPrecipIn,Conditions,Clouds,dailyrainin,SoftwareType,DateUTC
2013-02-16 00:00:00,41.0,36.8,30.05,West,270,0.0,0.4,85,0.00,,,0.00,WUHU216HW,2013-02-16 00:00:00,
2013-02-16 00:05:00,41.0,36.6,30.05,West,270,0.0,0.2,84,0.00,,,0.00,WUHU216HW,2013-02-16 00:05:00,
2013-02-16 00:10:00,41.0,36.6,30.05,West,270,0.0,0.2,84,0.00,,,0.00,WUHU216HW,2013-02-16 00:10:00,
2013-02-16 00:15:00,41.0,36.6,30.05,West,270,0.0,0.2,84,0.00,,,0.00,WUHU216HW,2013-02-16 00:15:00,
2013-02-16 00:20:00,41.0,36.6,30.05,West,270,0.0,0.0,84,0.00,,,0.00,WUHU216HW,2013-02-16 00:20:00,
2013-02-16 00:25:00,41.0,36.6,30.05,West,270,0.0,0.0,84,0.00,,,0.00,WUHU216HW,2013-02-16 00:25:00,
2013-02-16 00:30:00,41.0,36.6,30.05,West,270,0.0,0.0,84,0.00,,,0.00,WUHU216HW,2013-02-16 00:30:00,
2013-02-16 00:35:00,41.0,36.6,30.04,West,270,0.0,0.0,84,0.00,,,0.00,WUHU216HW,2013-02-16 00:35:00,
2013-02-16 00:40:00,41.0,36.6,30.04,West,270,0.0,0.0,84,0.00,,,0.00,WUHU216HW,2013-02-16 00:40:00,
2013-02-16 00:45:00,41.0,36.8,30.04,West,270,0.0,0.0,85,0.00,,,0.00,WUHU216HW,2013-02-16 00:45:00,
2013-02-16 00:50:00,41.0,36.8,30.04,West,270,0.0,0.0,85,0.00,,,0.00,WUHU216HW,2013-02-16 00:50:00,
2013-02-16 00:55:00,41.0,36.8,30.04,West,270,0.0,0.0,85,0.00,,,0.00,WUHU216HW,2013-02-16 00:55:00,
2013-02-16 01:00:00,41.0,36.8,30.04,West,270,0.0,0.0,85,0.00,,,0.00,WUHU216HW,2013-02-16 01:00:00,
2013-02-16 01:05:00,40.9,36.6,30.04,West,270,0.0,0.0,85,0.00,,,0.00,WUHU216HW,2013-02-16 01:05:00,
2013-02-16 01:10:00,40.9,36.6,30.04,West,270,0.0,0.0,85,0.00,,,0.00,WUHU216HW,2013-02-16 01:10:00,
2013-02-16 01:15:00,40.9,36.6,30.04,West,270,0.0,0.0,85,0.00,,,0.00,WUHU216HW,2013-02-16 01:15:00,
2013-02-16 01:20:00,40.9,36.6,30.04,West,270,0.0,0.0,85,0.00,,,0.00,WUHU216HW,2013-02-16 01:20:00,
2013-02-16 01:25:00,40.7,36.5,30.04,West,270,0.0,0.0,85,0.00,,,0.00,WUHU216HW,2013-02-16 01:25:00,
2013-02-16 01:30:00,40.7,36.5,30.04,West,270,0.0,0.0,85,0.00,,,0.00,WUHU216HW,2013-02-16 01:30:00,
2013-02-16 01:35:00,40.7,36.5,30.04,West,270,0.0,0.2,85,0.00,,,0.00,WUHU216HW,2013-02-16 01:35:00,
2013-02-16 01:40:00,40.7,36.5,30.04,West,270,0.0,0.2,85,0.00,,,0.00,WUHU216HW,2013-02-16 01:40:00,
2013-02-16 01:45:00,40.7,36.8,30.04,West,270,0.0,0.2,86,0.00,,,0.00,WUHU216HW,2013-02-16 01:45:00,
2013-02-16 01:50:00,40.7,36.8,30.04,West,270,0.0,0.2,86,0.00,,,0.00,WUHU216HW,2013-02-16 01:50:00,
2013-02-16 01:55:00,40.7,36.8,30.05,West,270,0.0,0.0,86,0.00,,,0.00,WUHU216HW,2013-02-16 01:55:00,
2013-02-16 02:00:00,40.7,36.8,30.05,West,270,0.0,0.0,86,0.00,,,0.00,WUHU216HW,2013-02-16 02:00:00,
2013-02-16 02:05:00,40.7,36.8,30.05,West,270,0.0,0.0,86,0.00,,,0.00,WUHU216HW,2013-02-16 02:05:00,
2013-02-16 02:10:00,40.7,36.8,30.05,West,270,0.0,0.0,86,0.00,,,0.00,WUHU216HW,2013-02-16 02:10:00,
2013-02-16 02:15:00,40.7,36.8,30.04,West,270,0.0,0.0,86,0.00,,,0.00,WUHU216HW,2013-02-16 02:15:00,
2013-02-16 02:20:00,40.7,36.8,30.04,West,270,0.0,0.2,86,0.00,,,0.00,WUHU216HW,2013-02-16 02:20:00,
2013-02-16 02:25:00,40.7,36.8,30.04,West,270,0.0,0.2,86,0.00,,,0.00,WUHU216HW,2013-02-16 02:25:00,
2013-02-16 02:30:00,40.7,36.8,30.04,West,270,0.0,0.0,86,0.00,,,0.00,WUHU216HW,2013-02-16 02:30:00,
2013-02-16 02:35:00,40.7,36.8,30.04,West,270,0.0,0.0,86,0.00,,,0.00,WUHU216HW,2013-02-16 02:35:00,
2013-02-16 02:40:00,40.7,36.8,30.04,West,270,0.0,0.0,86,0.00,,,0.00,WUHU216HW,2013-02-16 02:40:00,
2013-02-16 02:45:00,40.7,36.8,30.04,West,270,0.0,0.0,86,0.00,,,0.00,WUHU216HW,2013-02-16 02:45:00,
2013-02-16 02:50:00,40.5,36.6,30.04,West,270,0.0,0.0,86,0.00,,,0.00,WUHU216HW,2013-02-16 02:50:00,
2013-02-16 02:55:00,40.5,36.6,30.04,West,270,0.0,0.0,86,0.00,,,0.00,WUHU216HW,2013-02-16 02:55:00,
2013-02-16 03:00:00,40.5,36.6,30.04,West,270,0.0,0.2,86,0.00,,,0.00,WUHU216HW,2013-02-16 03:00:00,
2013-02-16 03:05:00,40.5,36.6,30.04,West,270,0.0,0.4,86,0.00,,,0.00,WUHU216HW,2013-02-16 03:05:00,
2013-02-16 03:10:00,40.5,36.6,30.04,West,270,0.2,0.4,86,0.00,,,0.00,WUHU216HW,2013-02-16 03:10:00,
2013-02-16 03:15:00,40.5,36.9,30.04,West,270,0.0,0.4,87,0.00,,,0.00,WUHU216HW,2013-02-16 03:15:00,
2013-02-16 03:20:00,40.3,36.5,30.04,West,270,0.0,0.4,86,0.00,,,0.00,WUHU216HW,2013-02-16 03:20:00,
2013-02-16 03:25:00,40.3,36.7,30.04,West,270,0.0,0.0,87,0.00,,,0.00,WUHU216HW,2013-02-16 03:25:00,
2013-02-16 03:30:00,40.3,36.7,30.04,West,270,0.0,0.0,87,0.00,,,0.00,WUHU216HW,2013-02-16 03:30:00,
2013-02-16 03:35:00,40.3,36.7,30.04,West,270,0.0,0.0,87,0.00,,,0.00,WUHU216HW,2013-02-16 03:35:00,
2013-02-16 03:40:00,40.3,36.7,30.04,West,270,0.0,0.0,87,0.00,,,0.00,WUHU216HW,2013-02-16 03:40:00,
2013-02-16 03:45:00,40.1,36.5,30.04,West,270,0.0,0.0,87,0.00,,,0.00,WUHU216HW,2013-02-16 03:45:00,
2013-02-16 03:50:00,40.1,36.5,30.04,West,270,0.0,0.0,87,0.00,,,0.00,WUHU216HW,2013-02-16 03:50:00,
2013-02-16 03:55:00,40.1,36.5,30.04,West,270,0.0,0.0,87,0.00,,,0.00,WUHU216HW,2013-02-16 03:55:00,
2013-02-16 04:00:00,40.1,36.5,30.05,West,270,0.0,0.0,87,0.00,,,0.00,WUHU216HW,2013-02-16 04:00:00,
2013-02-16 04:05:00,40.1,36.5,30.05,West,270,0.0,0.2,87,0.00,,,0.00,WUHU216HW,2013-02-16 04:05:00,
2013-02-16 04:10:00,40.1,36.5,30.04,West,270,0.0,0.2,87,0.00,,,0.00,WUHU216HW,2013-02-16 04:10:00,
2013-02-16 04:15:00,40.0,36.4,30.04,West,270,0.0,0.0,87,0.00,,,0.00,WUHU216HW,2013-02-16 04:15:00,
2013-02-16 04:20:00,40.0,36.4,30.04,West,270,0.0,0.0,87,0.00,,,0.00,WUHU216HW,2013-02-16 04:20:00,
2013-02-16 04:25:00,40.0,36.4,30.05,West,270,0.0,0.0,87,0.00,,,0.00,WUHU216HW,2013-02-16 04:25:00,
2013-02-16 04:30:00,40.0,36.4,30.05,West,270,0.0,0.2,87,0.00,,,0.00,WUHU216HW,2013-02-16 04:30:00,
2013-02-16 04:35:00,40.0,36.4,30.05,West,270,0.0,0.2,87,0.00,,,0.00,WUHU216HW,2013-02-16 04:35:00,
2013-02-16 04:40:00,40.0,36.4,30.05,West,270,0.0,0.0,87,0.00,,,0.00,WUHU216HW,2013-02-16 04:40:00,
2013-02-16 04:45:00,40.0,36.4,30.05,West,270,0.0,0.0,87,0.00,,,0.00,WUHU216HW,2013-02-16 04:45:00,
2013-02-16 04:50:00,40.0,36.4,30.05,West,270,0.0,0.0,87,0.00,,,0.00,WUHU216HW,2013-02-16 04:50:00,
2013-02-16 04:55:00,39.8,36.5,30.04,West,270,0.0,0.0,88,0.00,,,0.00,WUHU216HW,2013-02-16 04:55:00,
2013-02-16 05:00:00,39.8,36.5,30.05,West,270,0.0,0.0,88,0.00,,,0.00,WUHU216HW,2013-02-16 05:00:00,
2013-02-16 05:05:00,39.8,36.5,30.05,West,270,0.0,0.0,88,0.00,,,0.00,WUHU216HW,2013-02-16 05:05:00,
2013-02-16 05:10:00,39.8,36.5,30.05,West,270,0.2,0.2,88,0.00,,,0.00,WUHU216HW,2013-02-16 05:10:00,
2013-02-16 05:15:00,39.8,36.5,30.05,West,270,0.0,0.2,88,0.00,,,0.00,WUHU216HW,2013-02-16 05:15:00,
2013-02-16 05:20:00,39.8,36.5,30.05,West,270,0.0,0.2,88,0.00,,,0.00,WUHU216HW,2013-02-16 05:20:00,
2013-02-16 05:23:00,39.8,36.5,30.05,West,270,0.0,0.2,88,0.00,,,0.00,WUHU216HW,2013-02-16 05:23:00,
2013-02-16 05:28:00,39.8,36.5,30.05,West,270,0.0,0.7,88,0.00,,,0.00,WUHU216HW,2013-02-16 05:28:00,
2013-02-16 05:33:00,39.6,36.4,30.05,West,270,0.0,0.7,88,0.00,,,0.00,WUHU216HW,2013-02-16 05:33:00,
2013-02-16 05:38:00,39.6,36.4,30.05,West,270,0.0,0.0,88,0.00,,,0.00,WUHU216HW,2013-02-16 05:38:00,
2013-02-16 05:43:00,39.6,36.4,30.05,West,270,0.0,0.0,88,0.00,,,0.00,WUHU216HW,2013-02-16 05:43:00,
2013-02-16 05:48:00,39.6,36.4,30.05,West,270,0.0,0.0,88,0.00,,,0.00,WUHU216HW,2013-02-16 05:48:00,
2013-02-16 05:53:00,39.4,36.2,30.05,West,270,0.0,0.0,88,0.00,,,0.00,WUHU216HW,2013-02-16 05:53:00,
2013-02-16 05:58:00,39.4,36.2,30.05,West,270,0.0,0.0,88,0.00,,,0.00,WUHU216HW,2013-02-16 05:58:00,
2013-02-16 06:03:00,39.4,36.2,30.05,West,270,0.0,0.0,88,0.00,,,0.00,WUHU216HW,2013-02-16 06:03:00,
2013-02-16 06:08:00,39.2,36.3,30.05,West,270,0.0,0.0,89,0.00,,,0.00,WUHU216HW,2013-02-16 06:08:00,
2013-02-16 06:13:00,39.2,36.3,30.05,West,270,0.0,0.0,89,0.00,,,0.00,WUHU216HW,2013-02-16 06:13:00,
2013-02-16 06:18:00,39.2,36.3,30.05,West,270,0.0,0.0,89,0.00,,,0.00,WUHU216HW,2013-02-16 06:18:00,
2013-02-16 06:23:00,39.2,36.3,30.05,West,270,0.0,0.0,89,0.00,,,0.00,WUHU216HW,2013-02-16 06:23:00,
2013-02-16 06:28:00,39.2,36.3,30.05,West,270,0.0,0.0,89,0.00,,,0.00,WUHU216HW,2013-02-16 06:28:00,
2013-02-16 06:33:00,39.2,36.3,30.05,West,270,0.0,0.0,89,0.00,,,0.00,WUHU216HW,2013-02-16 06:33:00,
2013-02-16 06:38:00,39.2,36.3,30.05,West,270,0.0,0.0,89,0.00,,,0.00,WUHU216HW,2013-02-16 06:38:00,
2013-02-16 06:43:00,39.2,36.3,30.05,West,270,0.0,0.0,89,0.00,,,0.00,WUHU216HW,2013-02-16 06:43:00,
2013-02-16 06:48:00,39.2,36.3,30.05,West,270,0.0,0.0,89,0.00,,,0.00,WUHU216HW,2013-02-16 06:48:00,
2013-02-16 06:53:00,39.2,36.3,30.05,West,270,0.0,0.0,89,0.00,,,0.00,WUHU216HW,2013-02-16 06:53:00,
2013-02-16 06:58:00,39.2,36.3,30.05,West,270,0.0,0.0,89,0.00,,,0.00,WUHU216HW,2013-02-16 06:58:00,
2013-02-16 07:03:00,39.1,36.1,30.05,West,270,0.0,0.0,89,0.00,,,0.00,WUHU216HW,2013-02-16 07:03:00,
2013-02-16 07:08:00,39.1,36.1,30.06,West,270,0.0,0.0,89,0.00,,,0.00,WUHU216HW,2013-02-16 07:08:00,
2013-02-16 07:13:00,39.1,36.4,30.05,West,270,0.0,0.0,90,0.00,,,0.00,WUHU216HW,2013-02-16 07:13:00,
2013-02-16 07:18:00,39.1,36.4,30.06,West,270,0.0,0.0,90,0.00,,,0.00,WUHU216HW,2013-02-16 07:18:00,
2013-02-16 07:23:00,39.1,36.4,30.06,West,270,0.0,0.0,90,0.00,,,0.00,WUHU216HW,2013-02-16 07:23:00,
2013-02-16 07:28:00,39.1,36.4,30.06,West,270,0.0,0.2,90,0.00,,,0.00,WUHU216HW,2013-02-16 07:28:00,
2013-02-16 07:33:00,39.1,36.4,30.06,West,270,0.0,0.2,90,0.00,,,0.00,WUHU216HW,2013-02-16 07:33:00,
2013-02-16 07:38:00,39.2,36.5,30.07,West,270,0.0,0.0,90,0.00,,,0.00,WUHU216HW,2013-02-16 07:38:00,
2013-02-16 07:43:00,39.1,36.4,30.07,West,270,0.0,0.0,90,0.00,,,0.00,WUHU216HW,2013-02-16 07:43:00,
2013-02-16 07:48:00,39.2,36.5,30.07,West,270,0.0,0.0,90,0.00,,,0.00,WUHU216HW,2013-02-16 07:48:00,
2013-02-16 07:53:00,39.2,36.5,30.07,West,270,0.0,0.0,90,0.00,,,0.00,WUHU216HW,2013-02-16 07:53:00,
2013-02-16 07:58:00,39.4,36.7,30.07,West,270,0.0,0.0,90,0.00,,,0.00,WUHU216HW,2013-02-16 07:58:00,
2013-02-16 08:03:00,39.4,36.7,30.07,West,270,0.0,0.0,90,0.00,,,0.00,WUHU216HW,2013-02-16 08:03:00,
2013-02-16 08:08:00,39.6,36.9,30.07,West,270,0.0,0.0,90,0.00,,,0.00,WUHU216HW,2013-02-16 08:08:00,
2013-02-16 08:13:00,39.8,37.1,30.07,West,270,0.0,0.0,90,0.00,,,0.00,WUHU216HW,2013-02-16 08:13:00,
2013-02-16 08:18:00,40.0,37.3,30.07,West,270,0.0,0.0,90,0.00,,,0.00,WUHU216HW,2013-02-16 08:18:00,
2013-02-16 08:23:00,40.1,37.4,30.07,West,270,0.0,0.0,90,0.00,,,0.00,WUHU216HW,2013-02-16 08:23:00,
2013-02-16 08:28:00,40.1,37.4,30.07,West,270,0.0,0.0,90,0.00,,,0.00,WUHU216HW,2013-02-16 08:28:00,
2013-02-16 08:33:00,40.5,37.8,30.07,West,270,0.0,0.0,90,0.00,,,0.00,WUHU216HW,2013-02-16 08:33:00,
2013-02-16 08:38:00,40.7,38.0,30.07,West,270,0.0,0.4,90,0.00,,,0.00,WUHU216HW,2013-02-16 08:38:00,
2013-02-16 08:43:00,40.7,38.0,30.07,West,270,0.0,0.4,90,0.00,,,0.00,WUHU216HW,2013-02-16 08:43:00,
2013-02-16 08:48:00,40.9,38.2,30.07,West,270,0.0,0.2,90,0.00,,,0.00,WUHU216HW,2013-02-16 08:48:00,
2013-02-16 08:53:00,41.0,38.3,30.07,West,270,0.2,0.4,90,0.00,,,0.00,WUHU216HW,2013-02-16 08:53:00,
2013-02-16 08:58:00,41.2,38.5,30.07,West,270,0.0,0.4,90,0.00,,,0.00,WUHU216HW,2013-02-16 08:58:00,
2013-02-16 09:03:00,41.4,38.7,30.07,West,270,0.0,0.2,90,0.00,,,0.00,WUHU216HW,2013-02-16 09:03:00,
2013-02-16 09:08:00,41.4,38.7,30.07,West,270,0.0,0.0,90,0.00,,,0.00,WUHU216HW,2013-02-16 09:08:00,
2013-02-16 09:13:00,41.6,38.9,30.08,West,270,0.2,0.4,90,0.00,,,0.00,WUHU216HW,2013-02-16 09:13:00,
2013-02-16 09:18:00,41.9,39.0,30.07,West,270,0.0,0.4,89,0.00,,,0.00,WUHU216HW,2013-02-16 09:18:00,
2013-02-16 09:23:00,42.1,39.2,30.08,West,270,0.2,0.4,89,0.00,,,0.00,WUHU216HW,2013-02-16 09:23:00,
2013-02-16 09:28:00,42.3,39.3,30.08,West,270,0.0,0.4,89,0.00,,,0.00,WUHU216HW,2013-02-16 09:28:00,
2013-02-16 09:33:00,42.7,39.3,30.08,West,270,0.0,0.4,88,0.00,,,0.00,WUHU216HW,2013-02-16 09:33:00,
2013-02-16 09:38:00,42.8,39.5,30.08,West,270,0.0,0.4,88,0.00,,,0.00,WUHU216HW,2013-02-16 09:38:00,
2013-02-16 09:43:00,43.0,39.4,30.08,West,270,0.0,0.4,87,0.00,,,0.00,WUHU216HW,2013-02-16 09:43:00,
2013-02-16 09:48:00,43.2,39.9,30.08,West,270,0.0,0.4,88,0.00,,,0.00,WUHU216HW,2013-02-16 09:48:00,
2013-02-16 09:53:00,43.4,40.1,30.08,West,270,0.2,0.4,88,0.00,,,0.00,WUHU216HW,2013-02-16 09:53:00,
2013-02-16 09:58:00,43.6,40.2,30.08,East,90,1.1,1.1,88,0.00,,,0.00,WUHU216HW,2013-02-16 09:58:00,
2013-02-16 10:03:00,43.9,40.3,30.08,East,90,0.4,1.6,87,0.00,,,0.00,WUHU216HW,2013-02-16 10:03:00,
2013-02-16 10:08:00,43.9,40.0,30.08,East,90,0.4,1.6,86,0.00,,,0.00,WUHU216HW,2013-02-16 10:08:00,
2013-02-16 10:13:00,44.3,40.3,30.09,East,90,1.1,1.3,86,0.00,,,0.00,WUHU216HW,2013-02-16 10:13:00,
2013-02-16 10:18:00,44.3,40.1,30.09,ESE,113,0.7,1.8,85,0.00,,,0.00,WUHU216HW,2013-02-16 10:18:00,
2013-02-16 10:23:00,44.3,39.8,30.09,ESE,113,0.2,1.8,84,0.00,,,0.00,WUHU216HW,2013-02-16 10:23:00,
2013-02-16 10:28:00,44.3,39.8,30.09,SE,135,0.2,1.8,84,0.00,,,0.00,WUHU216HW,2013-02-16 10:28:00,
2013-02-16 10:33:00,44.6,39.8,30.09,NE,45,1.1,2.5,83,0.00,,,0.00,WUHU216HW,2013-02-16 10:33:00,
2013-02-16 10:38:00,45.0,39.5,30.09,East,90,0.9,2.5,81,0.00,,,0.00,WUHU216HW,2013-02-16 10:38:00,
2013-02-16 10:43:00,45.5,40.1,30.09,ENE,68,0.2,2.2,81,0.00,,,0.00,WUHU216HW,2013-02-16 10:43:00,
2013-02-16 10:48:00,45.7,40.2,30.09,ESE,113,0.7,1.8,81,0.00,,,0.00,WUHU216HW,2013-02-16 10:48:00,
2013-02-16 10:53:00,46.1,40.3,30.09,South,180,1.1,2.5,80,0.00,,,0.00,WUHU216HW,2013-02-16 10:53:00,
2013-02-16 10:58:00,46.3,40.5,30.09,East,90,0.7,2.5,80,0.00,,,0.00,WUHU216HW,2013-02-16 10:58:00,
2013-02-16 11:03:00,46.4,40.7,30.09,SE,135,1.3,1.8,80,0.00,,,0.00,WUHU216HW,2013-02-16 11:03:00,
2013-02-16 11:08:00,46.6,40.5,30.09,SE,135,1.1,2.0,79,0.00,,,0.00,WUHU216HW,2013-02-16 11:08:00,
2013-02-16 11:13:00,46.8,40.7,30.09,ESE,113,1.3,2.5,79,0.00,,,0.00,WUHU216HW,2013-02-16 11:13:00,
2013-02-16 11:18:00,46.8,40.7,30.09,East,90,1.8,2.5,79,0.00,,,0.00,WUHU216HW,2013-02-16 11:18:00,
2013-02-16 11:23:00,47.2,41.3,30.09,SSE,158,0.2,2.0,80,0.00,,,0.00,WUHU216HW,2013-02-16 11:23:00,
2013-02-16 11:28:00,47.2,41.3,30.09,SSW,203,0.9,1.8,80,0.00,,,0.00,WUHU216HW,2013-02-16 11:28:00,
2013-02-16 11:33:00,47.5,41.7,30.09,ESE,113,1.1,1.6,80,0.00,,,0.00,WUHU216HW,2013-02-16 11:33:00,
2013-02-16 11:38:00,47.7,41.5,30.09,South,180,0.2,1.8,79,0.00,,,0.00,WUHU216HW,2013-02-16 11:38:00,
2013-02-16 11:43:00,47.9,41.3,30.09,ESE,113,0.9,1.8,78,0.00,,,0.00,WUHU216HW,2013-02-16 11:43:00,
2013-02-16 11:48:00,48.1,41.5,30.09,SE,135,0.4,1.8,78,0.00,,,0.00,WUHU216HW,2013-02-16 11:48:00,
2013-02-16 11:53:00,48.2,41.6,30.09,ESE,113,0.2,1.3,78,0.00,,,0.00,WUHU216HW,2013-02-16 11:53:00,
2013-02-16 11:58:00,48.4,41.8,30.08,SSE,158,1.1,1.8,78,0.00,,,0.00,WUHU216HW,2013-02-16 11:58:00,
2013-02-16 12:03:00,48.6,41.9,30.08,ENE,68,1.8,1.8,78,0.00,,,0.00,WUHU216HW,2013-02-16 12:03:00,
2013-02-16 12:08:00,48.8,41.9,30.08,SE,135,1.1,2.5,77,0.00,,,0.00,WUHU216HW,2013-02-16 12:08:00,
2013-02-16 12:13:00,49.0,42.0,30.08,ESE,113,2.2,2.5,77,0.00,,,0.00,WUHU216HW,2013-02-16 12:13:00,
2013-02-16 12:18:00,49.1,41.9,30.07,South,180,0.4,2.2,76,0.00,,,0.00,WUHU216HW,2013-02-16 12:18:00,
2013-02-16 12:23:00,49.3,42.0,30.07,ESE,113,0.4,2.2,76,0.00,,,0.00,WUHU216HW,2013-02-16 12:23:00,
2013-02-16 12:28:00,49.5,41.5,30.07,NE,45,1.8,2.0,74,0.00,,,0.00,WUHU216HW,2013-02-16 12:28:00,
2013-02-16 12:33:00,49.7,42.0,30.07,SE,135,0.4,2.0,75,0.00,,,0.00,WUHU216HW,2013-02-16 12:33:00,
2013-02-16 12:38:00,49.9,41.9,30.07,ESE,113,0.2,1.8,74,0.00,,,0.00,WUHU216HW,2013-02-16 12:38:00,
2013-02-16 12:43:00,50.0,41.4,30.07,SE,135,0.4,1.8,72,0.00,,,0.00,WUHU216HW,2013-02-16 12:43:00,
2013-02-16 12:48:00,50.2,41.6,30.07,SSW,203,0.4,2.0,72,0.00,,,0.00,WUHU216HW,2013-02-16 12:48:00,
2013-02-16 12:53:00,50.4,41.8,30.07,SW,225,0.0,2.0,72,0.00,,,0.00,WUHU216HW,2013-02-16 12:53:00,
2013-02-16 12:58:00,50.4,41.4,30.07,ESE,113,0.7,1.8,71,0.00,,,0.00,WUHU216HW,2013-02-16 12:58:00,
2013-02-16 13:03:00,50.4,40.2,30.07,SW,225,0.2,2.2,68,0.00,,,0.00,WUHU216HW,2013-02-16 13:03:00,
2013-02-16 13:08:00,50.2,40.5,30.07,SSW,203,1.1,2.7,69,0.00,,,0.00,WUHU216HW,2013-02-16 13:08:00,
2013-02-16 13:13:00,50.2,40.5,30.06,ENE,68,0.2,2.7,69,0.00,,,0.00,WUHU216HW,2013-02-16 13:13:00,
2013-02-16 13:18:00,50.4,41.0,30.07,East,90,0.2,1.8,70,0.00,,,0.00,WUHU216HW,2013-02-16 13:18:00,
2013-02-16 13:23:00,50.4,41.0,30.06,SE,135,0.2,1.8,70,0.00,,,0.00,WUHU216HW,2013-02-16 13:23:00,
2013-02-16 13:28:00,50.2,40.9,30.06,ESE,113,0.9,1.8,70,0.00,,,0.00,WUHU216HW,2013-02-16 13:28:00,
2013-02-16 13:33:00,50.4,41.0,30.06,ESE,113,1.1,1.6,70,0.00,,,0.00,WUHU216HW,2013-02-16 13:33:00,
2013-02-16 13:38:00,50.2,40.9,30.06,SE,135,1.1,1.8,70,0.00,,,0.00,WUHU216HW,2013-02-16 13:38:00,
2013-02-16 13:43:00,50.2,40.5,30.06,SE,135,1.3,2.5,69,0.00,,,0.00,WUHU216HW,2013-02-16 13:43:00,
2013-02-16 13:48:00,50.2,40.5,30.06,East,90,1.1,2.5,69,0.00,,,0.00,WUHU216HW,2013-02-16 13:48:00,
2013-02-16 13:53:00,50.0,39.9,30.06,ESE,113,0.7,1.8,68,0.00,,,0.00,WUHU216HW,2013-02-16 13:53:00,
2013-02-16 13:58:00,50.0,39.9,30.05,ENE,68,0.9,1.8,68,0.00,,,0.00,WUHU216HW,2013-02-16 13:58:00,
2013-02-16 14:03:00,50.0,39.9,30.05,ENE,68,0.4,2.2,68,0.00,,,0.00,WUHU216HW,2013-02-16 14:03:00,
2013-02-16 14:08:00,49.9,40.2,30.05,ESE,113,0.4,2.2,69,0.00,,,0.00,WUHU216HW,2013-02-16 14:08:00,
2013-02-16 14:13:00,49.9,39.7,30.05,SE,135,0.4,2.5,68,0.00,,,0.00,WUHU216HW,2013-02-16 14:13:00,
2013-02-16 14:18:00,49.9,39.7,30.05,ESE,113,0.2,2.5,68,0.00,,,0.00,WUHU216HW,2013-02-16 14:18:00,
2013-02-16 14:23:00,50.0,39.9,30.05,ESE,113,1.3,1.8,68,0.00,,,0.00,WUHU216HW,2013-02-16 14:23:00,
2013-02-16 14:28:00,50.0,39.5,30.05,SE,135,2.2,2.7,67,0.00,,,0.00,WUHU216HW,2013-02-16 14:28:00,
2013-02-16 14:33:00,50.0,38.7,30.05,South,180,2.0,2.9,65,0.00,,,0.00,WUHU216HW,2013-02-16 14:33:00,
2013-02-16 14:38:00,49.9,38.5,30.05,ESE,113,0.0,3.4,65,0.00,,,0.00,WUHU216HW,2013-02-16 14:38:00,
2013-02-16 14:43:00,49.9,38.5,30.05,SSE,158,1.6,3.4,65,0.00,,,0.00,WUHU216HW,2013-02-16 14:43:00,
2013-02-16 14:48:00,49.7,38.8,30.05,ESE,113,0.4,1.8,66,0.00,,,0.00,WUHU216HW,2013-02-16 14:48:00,
2013-02-16 14:53:00,49.9,38.9,30.04,ESE,113,0.2,1.1,66,0.00,,,0.00,WUHU216HW,2013-02-16 14:53:00,
2013-02-16 14:58:00,49.9,38.9,30.05,SSW,203,0.2,1.8,66,0.00,,,0.00,WUHU216HW,2013-02-16 14:58:00,
2013-02-16 15:03:00,49.9,38.9,30.05,South,180,0.7,1.8,66,0.00,,,0.00,WUHU216HW,2013-02-16 15:03:00,
2013-02-16 15:08:00,49.9,38.2,30.04,ESE,113,1.3,2.5,64,0.00,,,0.00,WUHU216HW,2013-02-16 15:08:00,
2013-02-16 15:13:00,49.9,38.9,30.04,SE,135,0.4,2.5,66,0.00,,,0.00,WUHU216HW,2013-02-16 15:13:00,
2013-02-16 15:18:00,49.9,38.2,30.04,ESE,113,1.6,2.0,64,0.00,,,0.00,WUHU216HW,2013-02-16 15:18:00,
2013-02-16 15:23:00,49.9,38.5,30.04,ESE,113,1.1,2.0,65,0.00,,,0.00,WUHU216HW,2013-02-16 15:23:00,
2013-02-16 15:28:00,49.9,38.5,30.04,SSE,158,0.9,1.8,65,0.00,,,0.00,WUHU216HW,2013-02-16 15:28:00,
2013-02-16 15:33:00,49.7,38.3,30.04,ESE,113,1.3,2.7,65,0.00,,,0.00,WUHU216HW,2013-02-16 15:33:00,
2013-02-16 15:38:00,49.5,38.6,30.04,SE,135,0.4,2.7,66,0.00,,,0.00,WUHU216HW,2013-02-16 15:38:00,
2013-02-16 15:43:00,49.3,38.4,30.04,ESE,113,2.9,2.9,66,0.00,,,0.00,WUHU216HW,2013-02-16 15:43:00,
2013-02-16 15:48:00,49.3,38.4,30.04,South,180,3.4,3.4,66,0.00,,,0.00,WUHU216HW,2013-02-16 15:48:00,
2013-02-16 15:53:00,49.0,37.3,30.04,SW,225,0.4,4.7,64,0.00,,,0.00,WUHU216HW,2013-02-16 15:53:00,
2013-02-16 15:58:00,48.8,36.7,30.04,South,180,2.2,4.7,63,0.00,,,0.00,WUHU216HW,2013-02-16 15:58:00,
2013-02-16 16:03:00,48.6,37.0,30.04,South,180,0.7,2.9,64,0.00,,,0.00,WUHU216HW,2013-02-16 16:03:00,
2013-02-16 16:08:00,48.2,37.0,30.04,South,180,0.4,2.7,65,0.00,,,0.00,WUHU216HW,2013-02-16 16:08:00,
2013-02-16 16:13:00,48.1,36.8,30.04,South,180,0.0,2.7,65,0.00,,,0.00,WUHU216HW,2013-02-16 16:13:00,
2013-02-16 16:18:00,47.9,37.0,30.04,SSE,158,0.2,1.8,66,0.00,,,0.00,WUHU216HW,2013-02-16 16:18:00,
2013-02-16 16:23:00,47.5,37.1,30.04,South,180,1.1,1.8,67,0.00,,,0.00,WUHU216HW,2013-02-16 16:23:00,
2013-02-16 16:28:00,47.3,36.9,30.04,SSE,158,0.4,1.8,67,0.00,,,0.00,WUHU216HW,2013-02-16 16:28:00,
2013-02-16 16:33:00,47.2,37.2,30.04,SSE,158,0.4,1.1,68,0.00,,,0.00,WUHU216HW,2013-02-16 16:33:00,
2013-02-16 16:38:00,47.2,37.2,30.04,SSW,203,0.2,1.1,68,0.00,,,0.00,WUHU216HW,2013-02-16 16:38:00,
2013-02-16 16:43:00,47.0,37.0,30.04,South,180,0.0,1.1,68,0.00,,,0.00,WUHU216HW,2013-02-16 16:43:00,
2013-02-16 16:48:00,46.8,37.2,30.04,ESE,113,0.2,1.1,69,0.00,,,0.00,WUHU216HW,2013-02-16 16:48:00,
2013-02-16 16:53:00,46.8,37.2,30.04,South,180,0.0,1.1,69,0.00,,,0.00,WUHU216HW,2013-02-16 16:53:00,
2013-02-16 16:58:00,46.8,37.6,30.04,South,180,0.2,0.9,70,0.00,,,0.00,WUHU216HW,2013-02-16 16:58:00,
2013-02-16 17:03:00,46.6,37.5,30.04,South,180,0.0,0.9,70,0.00,,,0.00,WUHU216HW,2013-02-16 17:03:00,
2013-02-16 17:08:00,46.6,37.5,30.04,SSE,158,0.0,0.7,70,0.00,,,0.00,WUHU216HW,2013-02-16 17:08:00,
2013-02-16 17:13:00,46.4,37.6,30.04,SSE,158,0.0,0.7,71,0.00,,,0.00,WUHU216HW,2013-02-16 17:13:00,
2013-02-16 17:18:00,46.4,37.6,30.04,SSE,158,0.0,0.2,71,0.00,,,0.00,WUHU216HW,2013-02-16 17:18:00,
2013-02-16 17:23:00,46.3,37.5,30.04,SSE,158,0.0,0.4,71,0.00,,,0.00,WUHU216HW,2013-02-16 17:23:00,
2013-02-16 17:28:00,46.1,37.6,30.04,SSE,158,0.0,0.4,72,0.00,,,0.00,WUHU216HW,2013-02-16 17:28:00,
2013-02-16 17:33:00,46.1,37.6,30.04,SSE,158,0.0,0.4,72,0.00,,,0.00,WUHU216HW,2013-02-16 17:33:00,
2013-02-16 17:38:00,45.9,37.5,30.04,SSE,158,0.4,0.4,72,0.00,,,0.00,WUHU216HW,2013-02-16 17:38:00,
2013-02-16 17:43:00,45.7,37.3,30.04,SE,135,0.4,0.7,72,0.00,,,0.00,WUHU216HW,2013-02-16 17:43:00,
2013-02-16 17:48:00,45.7,37.5,30.04,SE,135,0.4,0.7,73,0.00,,,0.00,WUHU216HW,2013-02-16 17:48:00,
2013-02-16 17:53:00,45.5,37.4,30.04,SE,135,0.0,1.3,73,0.00,,,0.00,WUHU216HW,2013-02-16 17:53:00,
2013-02-16 17:58:00,45.4,37.2,30.04,ESE,113,0.0,1.3,73,0.00,,,0.00,WUHU216HW,2013-02-16 17:58:00,
2013-02-16 18:03:00,45.4,37.2,30.04,SSE,158,0.2,0.9,73,0.00,,,0.00,WUHU216HW,2013-02-16 18:03:00,
2013-02-16 18:08:00,45.4,37.5,30.04,ESE,113,0.0,1.8,74,0.00,,,0.00,WUHU216HW,2013-02-16 18:08:00,
2013-02-16 18:13:00,45.4,37.5,30.05,ESE,113,0.7,1.8,74,0.00,,,0.00,WUHU216HW,2013-02-16 18:13:00,
2013-02-16 18:18:00,45.2,37.4,30.04,ENE,68,1.3,1.8,74,0.00,,,0.00,WUHU216HW,2013-02-16 18:18:00,
2013-02-16 18:23:00,45.2,37.4,30.05,ESE,113,1.8,1.8,74,0.00,,,0.00,WUHU216HW,2013-02-16 18:23:00,
2013-02-16 18:28:00,45.2,37.7,30.05,ESE,113,0.4,1.8,75,0.00,,,0.00,WUHU216HW,2013-02-16 18:28:00,
2013-02-16 18:33:00,45.0,37.5,30.05,ESE,113,1.1,2.2,75,0.00,,,0.00,WUHU216HW,2013-02-16 18:33:00,
2013-02-16 18:38:00,45.0,37.9,30.05,ESE,113,0.4,2.2,76,0.00,,,0.00,WUHU216HW,2013-02-16 18:38:00,
2013-02-16 18:43:00,45.0,37.9,30.05,ESE,113,1.1,1.8,76,0.00,,,0.00,WUHU216HW,2013-02-16 18:43:00,
2013-02-16 18:48:00,45.0,37.9,30.05,ESE,113,0.4,1.1,76,0.00,,,0.00,WUHU216HW,2013-02-16 18:48:00,
2013-02-16 18:53:00,44.8,38.1,30.05,ESE,113,1.1,2.5,77,0.00,,,0.00,WUHU216HW,2013-02-16 18:53:00,
2013-02-16 18:58:00,44.8,38.1,30.05,SE,135,0.7,2.5,77,0.00,,,0.00,WUHU216HW,2013-02-16 18:58:00,
2013-02-16 19:03:00,44.6,38.2,30.05,ESE,113,0.0,1.8,78,0.00,,,0.00,WUHU216HW,2013-02-16 19:03:00,
2013-02-16 19:08:00,44.6,38.2,30.05,ESE,113,1.1,1.6,78,0.00,,,0.00,WUHU216HW,2013-02-16 19:08:00,
2013-02-16 19:13:00,44.6,38.5,30.05,SE,135,0.4,1.8,79,0.00,,,0.00,WUHU216HW,2013-02-16 19:13:00,
2013-02-16 19:18:00,44.5,38.3,30.05,ESE,113,1.1,1.8,79,0.00,,,0.00,WUHU216HW,2013-02-16 19:18:00,
2013-02-16 19:23:00,44.3,38.2,30.05,SE,135,0.4,1.6,79,0.00,,,0.00,WUHU216HW,2013-02-16 19:23:00,
2013-02-16 19:28:00,44.3,38.2,30.05,SE,135,0.4,1.6,79,0.00,,,0.00,WUHU216HW,2013-02-16 19:28:00,
2013-02-16 19:33:00,44.1,38.0,30.05,ESE,113,0.0,1.1,79,0.00,,,0.00,WUHU216HW,2013-02-16 19:33:00,
2013-02-16 19:38:00,44.1,38.0,30.05,ESE,113,0.4,1.1,79,0.00,,,0.00,WUHU216HW,2013-02-16 19:38:00,
2013-02-16 19:43:00,44.1,38.3,30.05,ESE,113,0.4,1.1,80,0.00,,,0.00,WUHU216HW,2013-02-16 19:43:00,
2013-02-16 19:48:00,43.9,38.4,30.05,SSW,203,0.9,1.6,81,0.00,,,0.00,WUHU216HW,2013-02-16 19:48:00,
2013-02-16 19:53:00,43.9,38.4,30.06,SE,135,0.7,1.6,81,0.00,,,0.00,WUHU216HW,2013-02-16 19:53:00,
2013-02-16 19:58:00,43.9,38.4,30.06,SE,135,0.2,1.3,81,0.00,,,0.00,WUHU216HW,2013-02-16 19:58:00,
2013-02-16 20:03:00,43.9,38.4,30.06,SE,135,0.0,0.9,81,0.00,,,0.00,WUHU216HW,2013-02-16 20:03:00,
2013-02-16 20:08:00,43.9,38.4,30.06,SE,135,0.4,0.7,81,0.00,,,0.00,WUHU216HW,2013-02-16 20:08:00,
2013-02-16 20:13:00,43.9,38.4,30.06,SE,135,0.0,0.7,81,0.00,,,0.00,WUHU216HW,2013-02-16 20:13:00,
2013-02-16 20:18:00,43.9,38.4,30.06,SE,135,0.0,0.7,81,0.00,,,0.00,WUHU216HW,2013-02-16 20:18:00,
2013-02-16 20:23:00,43.9,38.4,30.06,East,90,0.0,0.7,81,0.00,,,0.00,WUHU216HW,2013-02-16 20:23:00,
2013-02-16 20:28:00,43.7,38.3,30.06,East,90,0.0,0.7,81,0.00,,,0.00,WUHU216HW,2013-02-16 20:28:00,
2013-02-16 20:33:00,43.7,38.3,30.06,East,90,0.0,0.2,81,0.00,,,0.00,WUHU216HW,2013-02-16 20:33:00,
2013-02-16 20:38:00,43.6,38.1,30.06,East,90,0.0,0.2,81,0.00,,,0.00,WUHU216HW,2013-02-16 20:38:00,
2013-02-16 20:43:00,43.6,38.1,30.06,East,90,0.0,0.4,81,0.00,,,0.00,WUHU216HW,2013-02-16 20:43:00,
2013-02-16 20:48:00,43.4,37.9,30.06,East,90,0.0,0.4,81,0.00,,,0.00,WUHU216HW,2013-02-16 20:48:00,
2013-02-16 20:53:00,43.2,37.7,30.07,East,90,0.0,0.4,81,0.00,,,0.00,WUHU216HW,2013-02-16 20:53:00,
2013-02-16 20:58:00,43.2,38.1,30.07,East,90,0.0,0.4,82,0.00,,,0.00,WUHU216HW,2013-02-16 20:58:00,
2013-02-16 21:03:00,43.2,38.1,30.07,East,90,0.0,0.2,82,0.00,,,0.00,WUHU216HW,2013-02-16 21:03:00,
2013-02-16 21:08:00,43.0,37.9,30.07,East,90,0.0,0.0,82,0.00,,,0.00,WUHU216HW,2013-02-16 21:08:00,
2013-02-16 21:13:00,43.0,38.2,30.07,East,90,0.0,0.4,83,0.00,,,0.00,WUHU216HW,2013-02-16 21:13:00,
2013-02-16 21:18:00,42.8,38.0,30.07,East,90,0.0,0.4,83,0.00,,,0.00,WUHU216HW,2013-02-16 21:18:00,
2013-02-16 21:23:00,42.8,38.0,30.07,East,90,0.0,0.2,83,0.00,,,0.00,WUHU216HW,2013-02-16 21:23:00,
2013-02-16 21:28:00,42.7,38.2,30.07,East,90,0.0,0.0,84,0.00,,,0.00,WUHU216HW,2013-02-16 21:28:00,
2013-02-16 21:33:00,42.7,38.2,30.07,East,90,0.0,0.0,84,0.00,,,0.00,WUHU216HW,2013-02-16 21:33:00,
2013-02-16 21:38:00,42.5,38.3,30.07,East,90,0.2,0.2,85,0.00,,,0.00,WUHU216HW,2013-02-16 21:38:00,
2013-02-16 21:43:00,42.5,38.3,30.07,East,90,0.0,0.2,85,0.00,,,0.00,WUHU216HW,2013-02-16 21:43:00,
2013-02-16 21:48:00,42.5,38.3,30.07,East,90,0.0,0.4,85,0.00,,,0.00,WUHU216HW,2013-02-16 21:48:00,
2013-02-16 21:53:00,42.5,38.3,30.07,East,90,0.0,0.4,85,0.00,,,0.00,WUHU216HW,2013-02-16 21:53:00,
2013-02-16 21:58:00,42.5,38.3,30.07,East,90,0.0,0.2,85,0.00,,,0.00,WUHU216HW,2013-02-16 21:58:00,
2013-02-16 22:03:00,42.3,38.1,30.07,East,90,0.0,0.2,85,0.00,,,0.00,WUHU216HW,2013-02-16 22:03:00,
2013-02-16 22:08:00,42.3,38.1,30.07,East,90,0.0,0.2,85,0.00,,,0.00,WUHU216HW,2013-02-16 22:08:00,
2013-02-16 22:13:00,42.1,37.9,30.07,East,90,0.0,0.2,85,0.00,,,0.00,WUHU216HW,2013-02-16 22:13:00,
2013-02-16 22:18:00,42.1,37.9,30.07,East,90,0.0,0.0,85,0.00,,,0.00,WUHU216HW,2013-02-16 22:18:00,
2013-02-16 22:23:00,41.9,37.7,30.07,East,90,0.0,0.0,85,0.00,,,0.00,WUHU216HW,2013-02-16 22:23:00,
2013-02-16 22:28:00,41.8,37.5,30.07,East,90,0.0,0.0,85,0.00,,,0.00,WUHU216HW,2013-02-16 22:28:00,
2013-02-16 22:33:00,41.6,37.1,30.07,East,90,0.0,0.0,84,0.00,,,0.00,WUHU216HW,2013-02-16 22:33:00,
2013-02-16 22:38:00,41.4,36.9,30.07,East,90,0.0,0.0,84,0.00,,,0.00,WUHU216HW,2013-02-16 22:38:00,
2013-02-16 22:43:00,41.0,36.6,30.07,East,90,0.0,0.0,84,0.00,,,0.00,WUHU216HW,2013-02-16 22:43:00,
2013-02-16 22:48:00,40.9,36.6,30.06,East,90,0.4,0.4,85,0.00,,,0.00,WUHU216HW,2013-02-16 22:48:00,
2013-02-16 22:53:00,40.7,36.5,30.07,East,90,0.2,0.4,85,0.00,,,0.00,WUHU216HW,2013-02-16 22:53:00,
2013-02-16 22:58:00,40.3,36.1,30.06,East,90,0.0,0.2,85,0.00,,,0.00,WUHU216HW,2013-02-16 22:58:00,
2013-02-16 23:03:00,40.1,35.9,30.06,North,0,0.0,0.2,85,0.00,,,0.00,WUHU216HW,2013-02-16 23:03:00,
2013-02-16 23:08:00,40.0,36.1,30.06,East,90,0.0,0.2,86,0.00,,,0.00,WUHU216HW,2013-02-16 23:08:00,
2013-02-16 23:13:00,39.8,35.9,30.06,East,90,0.0,0.2,86,0.00,,,0.00,WUHU216HW,2013-02-16 23:13:00,
2013-02-16 23:18:00,39.6,35.7,30.06,East,90,0.0,0.0,86,0.00,,,0.00,WUHU216HW,2013-02-16 23:18:00,
2013-02-16 23:23:00,39.6,35.7,30.06,North,0,0.0,0.0,86,0.00,,,0.00,WUHU216HW,2013-02-16 23:23:00,
2013-02-16 23:28:00,39.2,35.6,30.06,East,90,0.0,0.0,87,0.00,,,0.00,WUHU216HW,2013-02-16 23:28:00,
2013-02-16 23:33:00,39.2,35.6,30.06,East,90,0.0,0.0,87,0.00,,,0.00,WUHU216HW,2013-02-16 23:33:00,
2013-02-16 23:38:00,39.1,35.5,30.06,East,90,0.0,0.2,87,0.00,,,0.00,WUHU216HW,2013-02-16 23:38:00,
2013-02-16 23:43:00,38.9,35.3,30.06,East,90,0.0,0.2,87,0.00,,,0.00,WUHU216HW,2013-02-16 23:43:00,
2013-02-16 23:48:00,38.7,35.1,30.06,East,90,0.0,0.2,87,0.00,,,0.00,WUHU216HW,2013-02-16 23:48:00,
2013-02-16 23:53:00,38.5,34.9,30.06,East,90,0.0,0.2,87,0.00,,,0.00,WUHU216HW,2013-02-16 23:53:00,
2013-02-16 23:58:00,38.5,34.9,30.05,East,90,0.0,0.0,87,0.00,,,0.00,WUHU216HW,2013-02-16 23:58:00,